San Jose, Costa Rica

12:44 AM CST on February 14, 2016 (GMT -0600)
San Jose

Weather History for 78762 - January, 2014

Change the Weather History Date:

Thursday, January 9, 2014

  Actual Average Record
Temperature  
Mean Temperature 74 °F -  
Max Temperature 82 °F 80 °F - ()
Min Temperature 66 °F 63 °F - ()
Cooling Degree Days 9    
Growing Degree Days 24 (Base 50)    
Moisture  
Dew Point 59 °F    
Average Humidity 61    
Maximum Humidity 73    
Minimum Humidity 42    
Precipitation  
Precipitation 0.00 in 0.01 in - ()
Sea Level Pressure  
Sea Level Pressure 29.97 in    
Wind  
Wind Speed 9 mph ()    
Max Wind Speed 15 mph    
Max Gust Speed 25 mph    
Visibility 7.5 miles    
Events      
T = Trace of Precipitation, MM = Missing Value Source: Averaged Metar Reports

Daily Weather History Graph

Daily Weather History Graph

Search for Another Location

Airport or City:

Trip Planner

Search our weather history database for the weather conditions in past years. The results will help you decide how hot, cold, wet, or windy it might be!

Date:

Astronomy

Jan. 09, 2014 Rise Set
Actual Time 5:56 AM CST 5:31 PM CST
Civil Twilight 5:34 AM CST 5:54 PM CST
Nautical Twilight 5:07 AM CST 6:20 PM CST
Astronomical Twilight 4:41 AM CST 6:46 PM CST
Moon 12:35 PM CST (1/9) 12:30 AM CST (1/9)
Length of Visible Light 12h 20m
Length of Day
11h 34m
Waxing Gibbous, 66% of the Moon is Illuminated
Jan 9
Waxing Gibbous
Jan 15
Full
Jan 23
Last Quarter
Jan 30
New
Feb 6
First Quarter

Hourly Weather History & Observations

Time (CST) Temp. Heat Index Dew Point Humidity Pressure Visibility Wind Dir Wind Speed Gust Speed Precip Events Conditions
12:00 AM 68 °F - 58 °F 62% 29.85 in 12 mi East 5.8 mph - -   Scattered Clouds
12:00 AM 68.0 °F - 57.2 °F 68% 30.02 in 6.2 mi East 5.8 mph - N/A   Partly Cloudy
1:00 AM 68.0 °F - 59.0 °F 73% 29.99 in 6.2 mi NE 8.1 mph - N/A   Scattered Clouds
2:00 AM 69.8 °F - 59.0 °F 68% 29.97 in 6.2 mi ESE 11.5 mph - N/A   Scattered Clouds
3:00 AM 69 °F - 59 °F 63% 29.81 in 12 mi East 12.7 mph - -   Scattered Clouds
3:00 AM 69.8 °F - 59.0 °F 68% 29.95 in 6.2 mi East 12.7 mph - N/A   Mostly Cloudy
4:00 AM 69.8 °F - 59.0 °F 68% 29.96 in 6.2 mi ESE 13.8 mph - N/A   Mostly Cloudy
5:00 AM 69.8 °F - 59.0 °F 68% 29.96 in 6.2 mi ESE 15.0 mph - N/A   Mostly Cloudy
6:00 AM 70 °F - 59 °F 60% 29.88 in 12 mi ESE 10.4 mph - -   Scattered Clouds
6:00 AM 69.8 °F - 59.0 °F 68% 29.99 in 6.2 mi ESE 10.4 mph - N/A   Mostly Cloudy
7:00 AM 71.6 °F - 57.2 °F 60% 30.01 in 6.2 mi ESE 12.7 mph 24.2 mph N/A   Mostly Cloudy
8:00 AM 73.4 °F - 59.0 °F 61% 30.04 in 6.2 mi ESE 11.5 mph 23.0 mph N/A   Mostly Cloudy
9:00 AM 75 °F - 59 °F 48% 29.93 in 12 mi East 11.5 mph - -   Overcast
9:00 AM 75.2 °F - 59.0 °F 57% 30.07 in 6.2 mi East 11.5 mph - N/A   Mostly Cloudy
10:00 AM 77.0 °F - 59.0 °F 54% 30.07 in 6.2 mi East 12.7 mph - N/A   Mostly Cloudy
11:00 AM 75.2 °F - 59.0 °F 57% 30.05 in 6.2 mi ESE 11.5 mph - N/A   Scattered Clouds
12:00 PM 78 °F - 60 °F 43% 29.92 in 12 mi East 15.0 mph - -   Overcast
12:00 PM 78.8 °F - 59.0 °F 51% 30.01 in 6.2 mi East 15.0 mph - N/A   Mostly Cloudy
1:00 PM 80.6 °F 80.8 °F 57.2 °F 45% 29.98 in 6.2 mi East 11.5 mph - N/A   Scattered Clouds
2:00 PM 82.4 °F 82.0 °F 57.2 °F 42% 29.95 in 6.2 mi East 11.5 mph 23.0 mph N/A   Scattered Clouds
3:00 PM 77.0 °F - 57.2 °F 50% 29.95 in 6.2 mi ENE 13.8 mph 25.3 mph N/A   Mostly Cloudy
4:00 PM 75.2 °F - 59.0 °F 57% 29.95 in 6.2 mi East 9.2 mph - N/A   Mostly Cloudy
6:00 PM 71.6 °F - 57.2 °F 60% 29.98 in 6.2 mi East 8.1 mph - N/A   Partly Cloudy
7:00 PM 71.6 °F - 59.0 °F 64% 29.99 in - North - - N/A   Partly Cloudy
8:00 PM 69.8 °F - 59.0 °F 68% 30.02 in - North - - N/A   Partly Cloudy
9:00 PM 70 °F - 59 °F 59% 29.90 in 12 mi East 9.2 mph - -  
9:00 PM 69.8 °F - 59.0 °F 68% 30.04 in 6.2 mi North - - N/A   Mostly Cloudy
10:00 PM 69.8 °F - 60.8 °F 73% 30.04 in 6.2 mi East 9.2 mph - N/A   Mostly Cloudy
11:00 PM 69.8 °F - 60.8 °F 73% 0.21 in 6.2 mi East 6.9 mph - N/A   Mostly Cloudy